Location: Kelshall
(52.0000°N, 0.0500°W)
Time: 00:51:56
(UTC+00:00)

Meteor 1-15 Rocket - Pass Details

Date: 25 January 2021
Orbit: 840 x 907 km, 81.2° (Epoch: 03 March)

Event Time Altitude Azimuth Distance (km) Brightness Sun altitude
Exits shadow 03:45:48 18° 14° (NNE) 1,988 6.4 -37.1°
Drops below altitude 10° 03:47:15 10° 14° (NNE) 2,533 7.0 -36.9°
Sets 03:49:43 0° 14° (NNE) 3,486 7.8 -36.5°
